[[{"header":{"parameterUnit":"m.s-1","parameterCategory":2,"la1":30.2991,"la2":30.254,"lo1":-89.0895,"lo2":-89.0444,"dy":0.0017,"dx":0.0017,"nx":28,"ny":28,"refTime":"2023-09-19T21:00:00:Z","depth":"0","parameterNumber":2,"parameterNumberName":"U-component_of_CURRENTS"},"data":[0,0,0,0,0,0,0,0,0,0,0,0,0,0,0,0,0,0,0,0,0,0,0,0,0,0,0,0,0,0,0,0,0,0,0,0,0,0,0,0,0,0,0,0,0,0,0,0,0,0,0,0,0,0,0,0,0,0,-0.2517,-0.2518,0,-0.2578,-0.2578,-0.2579,-0.2581,-0.2581,-0.258,-0.2579,-0.2723,-0.2727,-0.2731,0,0,0,0,0,0,0,0,0,0,0,0,0,-0.2406,-0.2408,-0.2517,-0.2518,-0.2519,-0.2577,-0.2578,-0.2579,-0.2581,-0.2581,-0.258,-0.2579,-0.2721,-0.2726,-0.2732,0,0,0,0,0,0,0,0,0,0,0,0,0,-0.2458,-0.2408,-0.2517,-0.2527,-0.2529,-0.2577,-0.2578,-0.2579,-0.2582,-0.2581,-0.258,-0.2579,-0.272,-0.2726,-0.2733,-0.2793,0,0,-0.2753,-0.2756,0,0,0,0,0,0,0,0,-0.2455,-0.2462,-0.2525,-0.2527,-0.2529,-0.2571,-0.2592,-0.2655,-0.2582,-0.2561,-0.2579,-0.2578,-0.2681,-0.2691,-0.2702,-0.28,-0.2806,-0.2753,-0.2757,-0.276,-0.2762,0,0,0,0,0,0,0,-0.2452,-0.246,-0.254,-0.2526,-0.2528,-0.253,-0.2536,-0.2603,-0.2627,-0.2563,-0.2563,-0.2571,-0.2682,-0.2696,-0.2706,-0.2808,-0.2753,-0.2759,-0.2763,-0.2766,-0.288,-0.2879,0,0,0,0,0,0,-0.2447,-0.2457,-0.2538,-0.2542,-0.249,-0.2533,-0.254,-0.2558,-0.2624,-0.2633,-0.2572,-0.2571,-0.2685,-0.2698,-0.2711,-0.2716,-0.276,-0.2766,-0.277,-0.2881,-0.288,-0.2879,0,0,0,0,0,0,-0.2445,-0.2454,-0.2536,-0.25,-0.2511,-0.2536,-0.2556,-0.256,-0.2567,-0.2631,-0.264,-0.2575,-0.2685,-0.2702,-0.2754,-0.2724,-0.2769,-0.2776,-0.2882,-0.2881,-0.2879,-0.2772,0,0,0,0,0,0,-0.2441,-0.2453,-0.246,-0.2501,-0.2513,-0.2549,-0.2558,-0.2562,-0.2574,-0.2574,-0.2637,-0.2649,-0.2685,-0.2744,-0.2761,-0.2734,-0.2781,-0.2883,-0.2881,-0.288,-0.2777,-0.2767,-0.2759,0,0,0,0,0,-0.2437,-0.2448,-0.246,-0.247,-0.2523,-0.2549,-0.2555,-0.2568,-0.2575,-0.2573,-0.2614,-0.2647,-0.2743,-0.275,-0.2769,-0.2744,-0.2884,-0.2882,-0.288,-0.2781,-0.2769,-0.2759,0,0,0,0,0,0,-0.2402,-0.2451,-0.2465,-0.249,-0.2511,-0.2549,-0.2552,-0.2568,-0.2599,-0.2602,-0.2657,-0.2673,-0.2692,-0.2746,-0.2751,-0.2769,-0.2811,-0.2813,-0.2729,-0.2719,-0.271,-0.2723,-0.2786,0,0,0,0,0,-0.24,-0.2417,-0.2462,-0.2476,-0.249,-0.2523,-0.2535,-0.2548,-0.2583,-0.2594,-0.2634,-0.2676,-0.2702,-0.2733,-0.2765,-0.2807,-0.283,-0.2796,-0.2787,-0.2779,-0.2802,-0.2795,-0.2787,-0.2872,-0.2872,-0.2872,0,0,-0.2389,-0.2417,-0.2427,-0.2469,-0.249,-0.2511,-0.2527,-0.2544,-0.2554,-0.2611,-0.2633,-0.2649,-0.2703,-0.2717,-0.2732,-0.2761,-0.2759,-0.2776,-0.2769,-0.2797,-0.2792,-0.2783,-0.2776,-0.287,-0.2871,-0.2871,0,0,-0.2375,-0.2403,-0.2415,-0.2437,-0.247,-0.2493,-0.2497,-0.2533,-0.2538,-0.2572,-0.2587,-0.2591,-0.2663,-0.2669,-0.269,-0.2665,-0.2701,-0.2667,-0.2651,-0.2641,-0.2634,-0.2629,-0.2612,-0.2605,-0.2675,-0.2675,-0.2674,0,-0.2358,-0.2388,-0.2418,-0.2437,-0.2455,-0.2485,-0.2502,-0.2517,-0.2558,-0.2567,-0.2567,-0.2612,-0.2637,-0.2651,-0.2621,-0.2643,-0.2649,-0.2682,-0.2628,-0.2623,-0.2619,-0.2604,-0.2599,-0.2669,-0.267,-0.267,-0.2671,0,-0.2359,-0.2382,-0.2389,-0.2428,-0.2447,-0.2462,-0.2496,-0.2507,-0.2519,-0.2535,-0.2539,-0.2556,-0.2588,-0.2568,-0.2593,-0.257,-0.2583,-0.2602,-0.2652,-0.2604,-0.2591,-0.2587,-0.2661,-0.2663,-0.2665,-0.2666,0,0,-0.2313,-0.2379,-0.2378,-0.2398,-0.2445,-0.246,-0.248,-0.2507,-0.2521,-0.2526,-0.2536,-0.2529,-0.253,-0.2553,-0.2557,-0.2545,-0.2484,-0.2562,-0.2564,-0.2539,-0.2459,-0.2379,-0.2368,-0.2492,-0.2492,-0.2491,-0.2448,0,-0.2299,-0.2333,-0.2371,-0.2394,-0.2416,-0.2456,-0.2474,-0.25,-0.2518,-0.2532,-0.2529,-0.2537,-0.2528,-0.2527,-0.2509,-0.2506,-0.2477,-0.2495,-0.2518,-0.2519,-0.2448,-0.2362,-0.2257,-0.2203,-0.2445,-0.2444,-0.2444,0,-0.228,-0.2308,-0.2336,-0.239,-0.2402,-0.2418,-0.2456,-0.2478,-0.2511,-0.2526,-0.2534,-0.2544,-0.253,-0.252,-0.2489,-0.2505,-0.2474,-0.2459,-0.2458,-0.243,-0.2432,-0.2298,-0.2187,-0.2167,-0.2439,-0.2439,-0.2439,0,-0.2224,-0.2278,-0.2298,-0.2317,-0.2383,-0.2394,-0.2423,-0.2465,-0.2485,-0.2519,-0.2532,-0.2536,-0.2527,-0.2507,-0.2471,-0.2483,-0.2431,-0.2447,-0.2342,-0.2337,-0.2279,-0.2268,-0.2151,-0.2406,-0.2406,-0.2406,-0.2406,0,-0.2195,-0.2205,-0.2272,-0.2281,-0.2295,-0.2357,-0.2374,-0.241,-0.2459,-0.2474,-0.2516,-0.2515,-0.2522,-0.2499,-0.2471,-0.2386,-0.2427,-0.2325,-0.2314,-0.2233,-0.222,-0.2229,-0.2266,-0.2404,-0.2405,-0.2405,-0.2405,0,-0.2124,-0.2176,-0.2195,-0.2256,-0.2269,-0.2274,-0.2335,-0.2355,-0.2413,-0.2435,-0.2444,-0.2488,-0.2455,-0.2445,-0.2406,-0.2365,-0.2263,-0.2266,-0.2165,-0.2141,-0.2018,-0.2053,-0.1979,-0.1927,-0.2145,-0.2143,-0.2141,0,-0.2091,-0.2095,-0.2148,-0.2157,-0.218,-0.2206,-0.2227,-0.2306,-0.2335,-0.2403,-0.2405,-0.24,-0.236,-0.2284,-0.2215,-0.2137,-0.2155,-0.2008,-0.2001,-0.1974,-0.2007,-0.2042,-0.2008,-0.1875,-0.1871,-0.1867,-0.1865,0,-0.2007,-0.2026,-0.2041,-0.2063,-0.2082,-0.2105,-0.2145,-0.216,-0.2253,-0.2274,-0.2279,-0.2254,-0.2189,-0.2059,-0.1974,-0.1925,-0.1956,-0.1936,-0.1936,-0.1799,-0.1805,-0.1761,-0.1949,-0.1835,-0.1838,-0.1841,-0.1842,-0.1843,-0.1922,-0.1912,-0.1935,-0.194,-0.1967,-0.1971,-0.1944,-0.2008,-0.2016,-0.2014,-0.2085,-0.2007,-0.195,-0.1801,-0.1751,-0.1636,-0.1718,-0.1598,-0.1646,-0.1687,-0.1617,-0.1729,-0.1588,-0.1589,-0.1591,-0.1592,-0.1593,0,-0.1805,-0.1806,-0.1813,-0.181,-0.1784,-0.1842,-0.1859,-0.1814,-0.1771,-0.1812,-0.1779,-0.1698,-0.1573,-0.1544,-0.1442,-0.1376,-0.1364,-0.1365,-0.1399,-0.138,-0.1484,-0.1449,-0.1238,-0.1238,-0.1238,-0.1238,-0.1238,-0.1238,-0.1743,-0.17,-0.1704,-0.161,-0.161,-0.1525,-0.1499,-0.1463,-0.146,-0.1379,-0.1351,-0.1356,-0.1353,-0.1438,-0.1339,-0.1276,-0.1273,-0.1225,-0.1276,-0.1368,-0.1395,-0.142,-0.1393,-0.1172,-0.1173,-0.1105,-0.1105,-0.1105]},{"header":{"parameterUnit":"m.s-1","parameterCategory":2,"la1":30.2991,"la2":30.254,"lo1":-89.0895,"lo2":-89.0444,"dy":0.0017,"dx":0.0017,"nx":28,"ny":28,"refTime":"2023-09-19T21:00:00:Z","depth":"0","parameterNumber":3,"parameterNumberName":"V-component_of_CURRENTS"},"data":[0,0,0,0,0,0,0,0,0,0,0,0,0,0,0,0,0,0,0,0,0,0,0,0,0,0,0,0,0,0,0,0,0,0,0,0,0,0,0,0,0,0,0,0,0,0,0,0,0,0,0,0,0,0,0,0,0,0,-0.0227,-0.0226,0,-0.0124,-0.0122,-0.0121,-0.0034,-0.0033,-0.0033,-0.0032,0.0232,0.0238,0.0245,0,0,0,0,0,0,0,0,0,0,0,0,0,-0.0264,-0.0264,-0.0227,-0.0226,-0.0225,-0.0124,-0.0122,-0.012,-0.0034,-0.0033,-0.0033,-0.0032,0.023,0.0238,0.0245,0,0,0,0,0,0,0,0,0,0,0,0,0,-0.0211,-0.0264,-0.0227,-0.0171,-0.0166,-0.0124,-0.0122,-0.012,-0.0034,-0.0033,-0.0032,-0.0031,0.0228,0.0237,0.0246,0.0285,0,0,0.0276,0.028,0,0,0,0,0,0,0,0,-0.0214,-0.0209,-0.0181,-0.0175,-0.0169,-0.0093,-0.0039,0.0022,-0.0035,-0.0081,-0.0032,-0.0031,0.0136,0.0153,0.0172,0.0297,0.0308,0.0276,0.0282,0.0286,0.0289,0,0,0,0,0,0,0,-0.0218,-0.0213,-0.0183,-0.018,-0.0172,-0.0123,-0.0115,-0.0027,0.0025,-0.0077,-0.0071,-0.0065,0.0141,0.0162,0.0179,0.0312,0.0276,0.0285,0.0291,0.0294,0.0494,0.0494,0,0,0,0,0,0,-0.0242,-0.0217,-0.0186,-0.018,-0.0192,-0.0124,-0.0114,-0.0116,0.0021,0.0041,-0.0066,-0.0061,0.0145,0.0168,0.0189,0.024,0.0286,0.0295,0.0301,0.0495,0.0494,0.0494,0,0,0,0,0,0,-0.0244,-0.0241,-0.0191,-0.0198,-0.0188,-0.0125,-0.0127,-0.0115,-0.0092,0.0027,0.0051,-0.0057,0.0147,0.0175,0.0255,0.0252,0.03,0.0308,0.0495,0.0494,0.0494,0.0346,0,0,0,0,0,0,-0.0245,-0.0242,-0.0251,-0.02,-0.0189,-0.0173,-0.0128,-0.0114,-0.0091,-0.0084,0.0043,0.0069,0.015,0.024,0.0265,0.0266,0.0316,0.0496,0.0495,0.0494,0.0351,0.034,0.0331,0,0,0,0,0,-0.0247,-0.0263,-0.0252,-0.0248,-0.0203,-0.0173,-0.0163,-0.0112,-0.0092,-0.0087,-0.0009,0.0065,0.0253,0.0247,0.0276,0.028,0.0496,0.0495,0.0494,0.0356,0.0343,0.0331,0,0,0,0,0,0,-0.0282,-0.0255,-0.0241,-0.0248,-0.0218,-0.016,-0.0152,-0.0122,-0.006,-0.0049,0.0062,0.0092,0.0155,0.0239,0.023,0.0335,0.0386,0.0391,0.0271,0.026,0.025,0.0244,0.0324,0,0,0,0,0,-0.0298,-0.0304,-0.0266,-0.0273,-0.0263,-0.0212,-0.0194,-0.0163,-0.0104,-0.0076,0.0007,0.0099,0.0173,0.0231,0.0306,0.0374,0.0438,0.0395,0.0385,0.0376,0.0391,0.0456,0.0453,0.049,0.049,0.049,0,0,-0.0313,-0.03,-0.0302,-0.0281,-0.0253,-0.0242,-0.0198,-0.018,-0.0162,-0.0054,-0.0004,0.0062,0.0177,0.0237,0.0276,0.0312,0.0394,0.0374,0.0365,0.0386,0.0455,0.0451,0.0448,0.049,0.049,0.049,0,0,-0.0347,-0.0338,-0.0351,-0.0332,-0.0304,-0.0271,-0.0273,-0.0223,-0.0192,-0.0143,-0.0072,-0.0012,0.0115,0.0186,0.0242,0.0227,0.0323,0.0252,0.0217,0.0279,0.0276,0.0275,0.0323,0.0327,0.0263,0.0263,0.0262,0,-0.0366,-0.0379,-0.0349,-0.0354,-0.0343,-0.0291,-0.0297,-0.0259,-0.0189,-0.0162,-0.014,0.0008,0.0092,0.0173,0.0162,0.0205,0.0252,0.0248,0.0263,0.0264,0.0265,0.0316,0.0322,0.0255,0.0256,0.0257,0.0258,0,-0.0403,-0.0412,-0.0419,-0.0408,-0.0391,-0.039,-0.034,-0.0317,-0.028,-0.0234,-0.0166,-0.007,0.0026,0.0049,0.0108,0.0157,0.0188,0.0223,0.0287,0.0252,0.0308,0.0317,0.0245,0.0248,0.025,0.0252,0,0,-0.0452,-0.0448,-0.0451,-0.0457,-0.0422,-0.0415,-0.039,-0.0349,-0.033,-0.0264,-0.0226,-0.0126,-0.0079,-0.0013,0.0057,0.0115,0.0142,0.0168,0.0175,0.0202,0.0269,0.0311,0.0326,0.0174,0.0176,0.0177,0.0293,0,-0.0491,-0.0524,-0.0501,-0.0519,-0.053,-0.0478,-0.0457,-0.0411,-0.0359,-0.0309,-0.0214,-0.0151,-0.0098,-0.0063,-0.0001,0.0115,0.0165,0.0107,0.0314,0.032,0.035,0.0338,0.0368,0.0477,0.0303,0.0305,0.0306,0,-0.0533,-0.0551,-0.0584,-0.0579,-0.0578,-0.0574,-0.0537,-0.0512,-0.0424,-0.0381,-0.0303,-0.0224,-0.0122,-0.0085,0.0093,0.0053,0.0148,0.023,0.0237,0.0344,0.0381,0.0494,0.0502,0.0636,0.0322,0.0321,0.032,0,-0.059,-0.0606,-0.0639,-0.0638,-0.0621,-0.062,-0.0604,-0.0536,-0.0512,-0.0425,-0.0392,-0.0263,-0.019,-0.0057,0.0115,0.0105,0.0308,0.032,0.0446,0.045,0.0555,0.0566,0.0714,0.0435,0.0435,0.0435,0.0434,0,-0.0641,-0.0665,-0.0671,-0.069,-0.072,-0.0682,-0.0686,-0.0648,-0.0581,-0.0544,-0.0437,-0.0368,-0.0179,-0.0036,0.0105,0.0313,0.0306,0.0448,0.049,0.0502,0.0506,0.0694,0.0736,0.0439,0.0438,0.0437,0.0437,0,-0.0693,-0.0698,-0.0738,-0.0745,-0.075,-0.0771,-0.0753,-0.0747,-0.0679,-0.0626,-0.0599,-0.0432,-0.0237,-0.0047,0.019,0.0309,0.0584,0.0565,0.056,0.0598,0.0827,0.0858,0.1057,0.1142,0.0719,0.0721,0.0723,0,-0.0723,-0.0751,-0.0791,-0.0822,-0.0829,-0.085,-0.0859,-0.0805,-0.0784,-0.0652,-0.0623,-0.0431,-0.0264,0.0088,0.0334,0.0593,0.0683,0.0752,0.0743,0.0857,0.0922,0.0932,0.0989,0.0815,0.0817,0.0819,0.082,0,-0.0777,-0.079,-0.0825,-0.0894,-0.0924,-0.0952,-0.0953,-0.0944,-0.0858,-0.0778,-0.0621,-0.0475,-0.0128,0.0203,0.0521,0.0667,0.0847,0.0796,0.0932,0.1028,0.1036,0.1131,0.0706,0.0836,0.0834,0.0833,0.0832,0.0832,-0.0808,-0.0853,-0.0902,-0.096,-0.0999,-0.1029,-0.1032,-0.0988,-0.0923,-0.0756,-0.0618,-0.0332,0.0091,0.0563,0.0732,0.1064,0.1009,0.1151,0.1183,0.1187,0.1262,0.0861,0.1025,0.1024,0.1024,0.1023,0.1023,0,-0.0847,-0.0897,-0.0964,-0.1029,-0.1073,-0.1077,-0.1071,-0.1025,-0.0917,-0.0709,-0.0508,0.0025,0.0444,0.0823,0.127,0.1444,0.1475,0.1513,0.1544,0.1588,0.1265,0.1263,0.1465,0.1465,0.1465,0.1465,0.1465,0.1464,-0.0869,-0.0943,-0.0982,-0.1067,-0.1107,-0.1125,-0.1108,-0.0998,-0.0834,-0.0459,-0.0115,0.0168,0.0679,0.1341,0.1749,0.1779,0.1928,0.1894,0.198,0.1759,0.1727,0.1697,0.1708,0.2,0.2001,0.2299,0.2302,0.2304]}],[{"header":{"parameterUnit":"m.s-1","parameterCategory":2,"la1":30.2991,"la2":30.254,"lo1":-89.0895,"lo2":-89.0444,"dy":0.0017,"dx":0.0017,"nx":28,"ny":28,"refTime":"2023-09-19T21:00:00:Z","depth":"2","parameterNumber":2,"parameterNumberName":"U-component_of_CURRENTS"},"data":[0,0,0,0,0,0,0,0,0,0,0,0,0,0,0,0,0,0,0,0,0,0,0,0,0,0,0,0,0,0,0,0,0,0,0,0,0,0,0,0,0,0,0,0,0,0,0,0,0,0,0,0,0,0,0,0,0,0,-0.2292,-0.2293,0,-0.2345,-0.2346,-0.2346,-0.2346,-0.2345,-0.2345,-0.2344,-0.2444,-0.2447,-0.245,0,0,0,0,0,0,0,0,0,0,0,0,0,-0.2184,-0.2186,-0.2292,-0.2293,-0.2294,-0.2345,-0.2346,-0.2346,-0.2346,-0.2345,-0.2344,-0.2344,-0.2443,-0.2447,-0.245,0,0,0,0,0,0,0,0,0,0,0,0,0,-0.2232,-0.2187,-0.2292,-0.2301,-0.2303,-0.2345,-0.2346,-0.2347,-0.2346,-0.2345,-0.2344,-0.2343,-0.2442,-0.2446,-0.2451,-0.2496,0,0,-0.2465,-0.2467,0,0,0,0,0,0,0,0,-0.2229,-0.2236,-0.2299,-0.2301,-0.2302,-0.234,-0.2344,-0.24,-0.2346,-0.2328,-0.2344,-0.2343,-0.2415,-0.2422,-0.2431,-0.2501,-0.2505,-0.2466,-0.2469,-0.2471,-0.2472,0,0,0,0,0,0,0,-0.2226,-0.2233,-0.2311,-0.23,-0.2302,-0.23,-0.2306,-0.2354,-0.2375,-0.2329,-0.233,-0.2339,-0.2416,-0.2426,-0.2433,-0.2507,-0.2466,-0.247,-0.2473,-0.2475,-0.2542,-0.2541,0,0,0,0,0,0,-0.2225,-0.2231,-0.231,-0.2313,-0.2265,-0.2303,-0.231,-0.2327,-0.2373,-0.238,-0.2339,-0.2338,-0.2418,-0.2428,-0.2437,-0.2444,-0.2471,-0.2475,-0.2478,-0.2543,-0.2542,-0.2541,0,0,0,0,0,0,-0.2222,-0.2232,-0.2308,-0.2274,-0.2283,-0.2306,-0.2326,-0.2329,-0.2337,-0.2381,-0.2387,-0.2345,-0.2418,-0.243,-0.2458,-0.245,-0.2477,-0.2482,-0.2545,-0.2543,-0.2542,-0.2492,0,0,0,0,0,0,-0.2219,-0.2231,-0.2238,-0.2274,-0.2285,-0.2322,-0.2327,-0.233,-0.2345,-0.2344,-0.2388,-0.2396,-0.2418,-0.245,-0.2462,-0.2457,-0.2485,-0.2546,-0.2544,-0.2542,-0.2495,-0.2489,-0.2484,0,0,0,0,0,-0.2215,-0.2226,-0.2238,-0.2248,-0.2297,-0.2322,-0.2327,-0.2339,-0.2346,-0.2345,-0.2365,-0.2395,-0.2446,-0.2454,-0.2468,-0.2464,-0.2547,-0.2545,-0.2542,-0.2497,-0.249,-0.2484,0,0,0,0,0,0,-0.2182,-0.2229,-0.2242,-0.2267,-0.2289,-0.2322,-0.2327,-0.2342,-0.2359,-0.2361,-0.2396,-0.2406,-0.2419,-0.2451,-0.2458,-0.2473,-0.2497,-0.2497,-0.2457,-0.2451,-0.2445,-0.2453,-0.2489,0,0,0,0,0,-0.2181,-0.2199,-0.2241,-0.2257,-0.2271,-0.2302,-0.2314,-0.2326,-0.235,-0.2356,-0.2385,-0.2409,-0.2423,-0.2443,-0.2462,-0.2492,-0.2501,-0.2492,-0.2486,-0.2481,-0.2494,-0.2487,-0.2482,-0.2533,-0.2533,-0.2533,0,0,-0.2172,-0.2199,-0.221,-0.2251,-0.2271,-0.2292,-0.2306,-0.2325,-0.2337,-0.2368,-0.2387,-0.2395,-0.2423,-0.2432,-0.2443,-0.2461,-0.2465,-0.2478,-0.2474,-0.249,-0.2484,-0.2479,-0.2475,-0.2532,-0.2532,-0.2532,0,0,-0.2162,-0.219,-0.2202,-0.2225,-0.2258,-0.228,-0.2286,-0.2321,-0.2328,-0.2352,-0.2358,-0.2359,-0.2407,-0.2407,-0.2419,-0.2401,-0.2429,-0.2405,-0.24,-0.2391,-0.2387,-0.2384,-0.2365,-0.2361,-0.2411,-0.2411,-0.2411,0,-0.2148,-0.2177,-0.2206,-0.2226,-0.2244,-0.2275,-0.2293,-0.2309,-0.2343,-0.2351,-0.235,-0.2378,-0.2392,-0.24,-0.2378,-0.239,-0.239,-0.2424,-0.2384,-0.2381,-0.2379,-0.2361,-0.2357,-0.2408,-0.2409,-0.2409,-0.2409,0,-0.2151,-0.2175,-0.2183,-0.2221,-0.2241,-0.2259,-0.2293,-0.2307,-0.2323,-0.2339,-0.2345,-0.235,-0.2368,-0.2358,-0.2367,-0.2354,-0.2358,-0.237,-0.2403,-0.2371,-0.2353,-0.235,-0.2405,-0.2406,-0.2406,-0.2407,0,0,-0.2109,-0.2174,-0.2174,-0.2195,-0.2242,-0.2259,-0.2282,-0.2311,-0.2328,-0.2338,-0.2351,-0.2342,-0.2345,-0.2355,-0.2355,-0.2344,-0.2303,-0.2351,-0.2352,-0.2336,-0.2278,-0.2201,-0.219,-0.2311,-0.2311,-0.231,-0.2264,0,-0.2099,-0.2135,-0.217,-0.2197,-0.2221,-0.2261,-0.2283,-0.2311,-0.2331,-0.2349,-0.2347,-0.2355,-0.2345,-0.2346,-0.2331,-0.232,-0.2297,-0.2315,-0.2311,-0.2311,-0.2248,-0.2184,-0.2034,-0.1974,-0.2261,-0.2261,-0.226,0,-0.2083,-0.2112,-0.2143,-0.2199,-0.2212,-0.2231,-0.2274,-0.2298,-0.2333,-0.2349,-0.2359,-0.2368,-0.2355,-0.2346,-0.2313,-0.2328,-0.2298,-0.2281,-0.2279,-0.2229,-0.2227,-0.2058,-0.1958,-0.2255,-0.2255,-0.2256,-0.2256,0,-0.2032,-0.2087,-0.2111,-0.213,-0.2199,-0.2214,-0.2244,-0.2289,-0.231,-0.2345,-0.2359,-0.2364,-0.2356,-0.2335,-0.2297,-0.2308,-0.2254,-0.2268,-0.2166,-0.216,-0.2044,-0.2028,-0.2229,-0.2229,-0.223,-0.223,-0.223,0,-0.2006,-0.202,-0.2089,-0.2102,-0.2122,-0.2183,-0.2206,-0.2241,-0.2292,-0.2307,-0.2347,-0.2348,-0.2352,-0.2328,-0.2297,-0.2211,-0.2251,-0.215,-0.2138,-0.2018,-0.2001,-0.2268,-0.2273,-0.2228,-0.2228,-0.2229,-0.2229,0,-0.1942,-0.1994,-0.2018,-0.2084,-0.21,-0.2109,-0.2173,-0.2194,-0.2253,-0.2273,-0.2283,-0.2326,-0.229,-0.2278,-0.2235,-0.2192,-0.2135,-0.2092,-0.1945,-0.1915,-0.2049,-0.2052,-0.1978,-0.1975,-0.1972,-0.197,-0.1968,0,-0.1912,-0.1921,-0.1979,-0.1991,-0.2016,-0.2048,-0.2072,-0.2151,-0.2178,-0.2245,-0.2245,-0.2241,-0.22,-0.2118,-0.2045,-0.1963,-0.2041,-0.1789,-0.1777,-0.2025,-0.2021,-0.2028,-0.2035,-0.1596,-0.1591,-0.1588,-0.1584,0,-0.1838,-0.1859,-0.1878,-0.1905,-0.1929,-0.1953,-0.1996,-0.2011,-0.21,-0.2119,-0.212,-0.2094,-0.2026,-0.1867,-0.178,-0.1722,-0.1795,-0.1705,-0.1991,-0.1687,-0.1662,-0.166,-0.1679,-0.1549,-0.1553,-0.1555,-0.1557,-0.1559,-0.1761,-0.1755,-0.1782,-0.1792,-0.1822,-0.1828,-0.1802,-0.1862,-0.1867,-0.1857,-0.1925,-0.1826,-0.1811,-0.1577,-0.1488,-0.1422,-0.1548,-0.149,-0.1504,-0.1521,-0.1488,-0.146,-0.1303,-0.1305,-0.1307,-0.1309,-0.131,0,-0.1655,-0.166,-0.167,-0.1672,-0.1651,-0.1708,-0.1722,-0.1673,-0.1624,-0.1646,-0.1606,-0.1417,-0.1308,-0.1294,-0.1129,-0.1099,-0.1104,-0.1063,-0.1073,-0.1108,-0.114,-0.1089,-0.0797,-0.0796,-0.0794,-0.0793,0,0,-0.1599,-0.1563,-0.1567,-0.1483,-0.1487,-0.1405,-0.1378,-0.1329,-0.1309,-0.1209,-0.1155,-0.1229,-0.1253,-0.1025,-0.0974,-0.0855,-0.0975,-0.0814,-0.1225,-0.1271,-0.1301,-0.1384,-0.1345,0,0,0,0,0]},{"header":{"parameterUnit":"m.s-1","parameterCategory":2,"la1":30.2991,"la2":30.254,"lo1":-89.0895,"lo2":-89.0444,"dy":0.0017,"dx":0.0017,"nx":28,"ny":28,"refTime":"2023-09-19T21:00:00:Z","depth":"2","parameterNumber":3,"parameterNumberName":"V-component_of_CURRENTS"},"data":[0,0,0,0,0,0,0,0,0,0,0,0,0,0,0,0,0,0,0,0,0,0,0,0,0,0,0,0,0,0,0,0,0,0,0,0,0,0,0,0,0,0,0,0,0,0,0,0,0,0,0,0,0,0,0,0,0,0,-0.0301,-0.0301,0,-0.0211,-0.021,-0.0209,-0.0133,-0.0132,-0.0131,-0.0131,0.0056,0.006,0.0064,0,0,0,0,0,0,0,0,0,0,0,0,0,-0.0337,-0.0337,-0.0302,-0.0301,-0.03,-0.0211,-0.021,-0.0208,-0.0133,-0.0132,-0.0131,-0.0131,0.0054,0.0059,0.0064,0,0,0,0,0,0,0,0,0,0,0,0,0,-0.029,-0.0337,-0.0302,-0.0253,-0.0248,-0.0211,-0.021,-0.0208,-0.0133,-0.0132,-0.0131,-0.013,0.0052,0.0059,0.0065,0.0086,0,0,0.0085,0.0088,0,0,0,0,0,0,0,0,-0.0293,-0.0289,-0.0261,-0.0256,-0.025,-0.0184,-0.0154,-0.0105,-0.0133,-0.0175,-0.0131,-0.013,-0.0018,-0.0005,0.0011,0.0095,0.0103,0.0086,0.009,0.0093,0.0094,0,0,0,0,0,0,0,-0.0296,-0.0292,-0.0264,-0.026,-0.0254,-0.0211,-0.0203,-0.0144,-0.0099,-0.0171,-0.0166,-0.0159,-0.0014,0.0004,0.0016,0.0106,0.0086,0.0091,0.0095,0.0098,0.023,0.0229,0,0,0,0,0,0,-0.0316,-0.0295,-0.0267,-0.0261,-0.0272,-0.0211,-0.0203,-0.0205,-0.0102,-0.0087,-0.016,-0.0156,-0.0007,0.0008,0.0023,0.0065,0.0092,0.0099,0.0102,0.023,0.023,0.0229,0,0,0,0,0,0,-0.0318,-0.0315,-0.027,-0.0277,-0.0269,-0.0213,-0.0214,-0.0203,-0.0184,-0.0095,-0.0077,-0.0152,-0.0006,0.0014,0.0067,0.0072,0.0102,0.0108,0.0231,0.023,0.023,0.0141,0,0,0,0,0,0,-0.0319,-0.0316,-0.0324,-0.0279,-0.0269,-0.0255,-0.0215,-0.0202,-0.0182,-0.0176,-0.0082,-0.0064,-0.0004,0.0056,0.0073,0.0082,0.0113,0.0231,0.023,0.023,0.0145,0.0138,0.0132,0,0,0,0,0,-0.0321,-0.0336,-0.0325,-0.0321,-0.0282,-0.0255,-0.0246,-0.0201,-0.0183,-0.0179,-0.0121,-0.0067,0.0064,0.0061,0.0081,0.0092,0.0232,0.0231,0.023,0.0148,0.0139,0.0132,0,0,0,0,0,0,-0.0354,-0.0329,-0.0315,-0.0322,-0.0295,-0.0243,-0.0238,-0.021,-0.0163,-0.0155,-0.0072,-0.005,-0.0004,0.0051,0.0046,0.0126,0.0157,0.016,0.0088,0.0081,0.0074,0.0068,0.0118,0,0,0,0,0,-0.0369,-0.0374,-0.0339,-0.0345,-0.0336,-0.029,-0.0274,-0.0246,-0.02,-0.0179,-0.0116,-0.0049,0.0007,0.0048,0.0102,0.0149,0.0198,0.0168,0.0161,0.0155,0.0162,0.0225,0.0225,0.0226,0.0226,0.0226,0,0,-0.0383,-0.0371,-0.0372,-0.0352,-0.0328,-0.0318,-0.0278,-0.0262,-0.0245,-0.0165,-0.0126,-0.0073,0.001,0.0057,0.0084,0.0107,0.0177,0.0154,0.0149,0.0159,0.0224,0.0224,0.0224,0.0226,0.0226,0.0226,0,0,-0.0414,-0.0406,-0.0418,-0.04,-0.0375,-0.0345,-0.0346,-0.0301,-0.0273,-0.0236,-0.0176,-0.0125,-0.0038,0.0024,0.0067,0.0059,0.0132,0.0075,0.0053,0.0112,0.0113,0.0114,0.0159,0.0165,0.0083,0.0083,0.0082,0,-0.0432,-0.0443,-0.0417,-0.0421,-0.0409,-0.0363,-0.0367,-0.0333,-0.0275,-0.025,-0.0234,-0.0114,-0.0049,0.0022,0.0017,0.0047,0.0085,0.0074,0.0103,0.0106,0.0109,0.0155,0.0163,0.0078,0.0079,0.0079,0.008,0,-0.0467,-0.0474,-0.048,-0.047,-0.0454,-0.0452,-0.0407,-0.0385,-0.035,-0.0307,-0.0246,-0.0167,-0.0089,-0.0066,-0.0022,0.0031,0.0051,0.0077,0.012,0.0103,0.0153,0.0162,0.0072,0.0074,0.0075,0.0076,0,0,-0.0514,-0.0508,-0.051,-0.0514,-0.0481,-0.0474,-0.045,-0.041,-0.039,-0.0329,-0.0291,-0.0202,-0.0159,-0.0109,-0.0047,0.0009,0.0051,0.0046,0.0051,0.0085,0.0172,0.02,0.0214,0.008,0.0081,0.0082,0.0193,0,-0.0549,-0.0578,-0.0555,-0.0569,-0.0578,-0.0529,-0.0509,-0.0464,-0.0415,-0.0366,-0.0277,-0.022,-0.0173,-0.0141,-0.0079,0.0023,0.0076,0.0019,0.019,0.0195,0.0219,0.0226,0.0194,0.0291,0.0203,0.0205,0.0206,0,-0.0588,-0.0603,-0.0631,-0.0622,-0.062,-0.0616,-0.0577,-0.0553,-0.0468,-0.0427,-0.0352,-0.0281,-0.0182,-0.0151,0.0018,-0.0023,0.0065,0.0139,0.0146,0.0215,0.0242,0.03,0.0313,0.0223,0.0221,0.022,0.0219,0,-0.064,-0.0652,-0.068,-0.0677,-0.0658,-0.0656,-0.064,-0.0574,-0.055,-0.0465,-0.0433,-0.0309,-0.0243,-0.0117,0.0039,0.0029,0.0219,0.023,0.0337,0.0339,0.037,0.0373,0.0341,0.0341,0.034,0.034,0.034,0,-0.0687,-0.0706,-0.071,-0.0726,-0.0751,-0.0713,-0.0715,-0.0677,-0.0613,-0.0578,-0.0472,-0.0409,-0.0233,-0.0101,0.0031,0.022,0.0219,0.0341,0.0377,0.0336,0.0335,0.0325,0.0322,0.0344,0.0343,0.0343,0.0342,0,-0.0735,-0.0738,-0.0771,-0.0774,-0.0779,-0.0797,-0.0779,-0.0771,-0.0705,-0.0656,-0.063,-0.0473,-0.0294,-0.0116,0.0103,0.0213,0.0386,0.0448,0.0381,0.0407,0.0465,0.0455,0.058,0.0582,0.0584,0.0585,0.0587,0,-0.0763,-0.0787,-0.082,-0.0849,-0.0855,-0.0873,-0.0881,-0.0828,-0.0808,-0.0685,-0.0659,-0.0483,-0.0333,-0.0007,0.0215,0.0455,0.0446,0.0547,0.053,0.047,0.0493,0.0481,0.0469,0.0529,0.053,0.053,0.0531,0,-0.0812,-0.0824,-0.0854,-0.0918,-0.0946,-0.097,-0.0971,-0.0964,-0.0882,-0.0809,-0.0669,-0.0539,-0.0227,0.0047,0.0338,0.0465,0.0506,0.0566,0.0544,0.0468,0.0431,0.0449,0.0438,0.0535,0.0535,0.0535,0.0534,0.0534,-0.0843,-0.0883,-0.0927,-0.0982,-0.1018,-0.1046,-0.1051,-0.1012,-0.0955,-0.0809,-0.0681,-0.0437,-0.0207,0.024,0.0428,0.0597,0.0596,0.0631,0.0626,0.0621,0.0591,0.0558,0.068,0.068,0.0681,0.0681,0.0681,0,-0.0881,-0.0926,-0.0988,-0.1048,-0.1091,-0.1094,-0.109,-0.1052,-0.0961,-0.0785,-0.0607,-0.0305,0.0001,0.0241,0.0526,0.0682,0.065,0.0686,0.0618,0.0612,0.0607,0.0573,0.066,0.066,0.0661,0.0661,0,0,-0.0903,-0.0971,-0.1006,-0.1089,-0.1128,-0.115,-0.1138,-0.1045,-0.0907,-0.071,-0.0502,-0.025,0.0042,0.0238,0.0416,0.0556,0.0537,0.0555,0.0555,0.0445,0.0439,0.0558,0.0498,0,0,0,0,0]}],[{"header":{"parameterUnit":"m.s-1","parameterCategory":2,"la1":30.2991,"la2":30.254,"lo1":-89.0895,"lo2":-89.0444,"dy":0.0017,"dx":0.0017,"nx":28,"ny":28,"refTime":"2023-09-19T21:00:00:Z","depth":"4","parameterNumber":2,"parameterNumberName":"U-component_of_CURRENTS"},"data":[0,0,0,0,0,0,0,0,0,0,0,0,0,0,0,0,0,0,0,0,0,0,0,0,0,0,0,0,0,0,0,0,0,0,0,0,0,0,0,0,0,0,0,0,0,0,0,0,0,0,0,0,0,0,0,0,0,0,-0.1658,-0.1659,0,-0.1741,-0.1741,-0.1742,-0.1793,-0.1793,-0.1794,-0.1794,-0.1766,-0.1765,-0.1764,0,0,0,0,0,0,0,0,0,0,0,0,0,-0.1535,-0.1537,-0.1657,-0.1659,-0.166,-0.174,-0.1741,-0.1742,-0.1793,-0.1793,-0.1794,-0.1794,-0.1766,-0.1765,-0.1764,0,0,0,0,0,0,0,0,0,0,0,0,0,-0.1598,-0.1537,-0.1657,-0.1696,-0.17,-0.174,-0.1741,-0.1743,-0.1793,-0.1793,-0.1794,-0.1795,-0.1767,-0.1765,-0.1763,-0.174,0,0,-0.1758,-0.1757,0,0,0,0,0,0,0,0,-0.1594,-0.1602,-0.1689,-0.1693,-0.1699,-0.1759,-0.1688,-0.1737,-0.1793,-0.1756,-0.1794,-0.1795,-0.1754,-0.1753,-0.1767,-0.1739,-0.1738,-0.1758,-0.1757,-0.1756,-0.1756,0,0,0,0,0,0,0,-0.159,-0.1599,-0.1689,-0.169,-0.1696,-0.1707,-0.1716,-0.1698,-0.1747,-0.1759,-0.1763,-0.1775,-0.1755,-0.1768,-0.1766,-0.1737,-0.1758,-0.1757,-0.1756,-0.1755,-0.1758,-0.1759,0,0,0,0,0,0,-0.1583,-0.1595,-0.1686,-0.1691,-0.1649,-0.1709,-0.1719,-0.1737,-0.175,-0.1754,-0.1775,-0.1777,-0.1771,-0.1768,-0.1765,-0.1799,-0.1756,-0.1755,-0.1754,-0.1757,-0.1758,-0.1759,0,0,0,0,0,0,-0.1581,-0.1591,-0.1683,-0.1646,-0.1659,-0.171,-0.173,-0.1739,-0.1779,-0.1763,-0.1765,-0.1809,-0.1771,-0.1767,-0.1783,-0.1795,-0.1754,-0.1752,-0.1756,-0.1757,-0.1759,-0.1827,0,0,0,0,0,0,-0.1577,-0.1589,-0.1611,-0.1646,-0.1661,-0.1716,-0.173,-0.174,-0.1784,-0.1789,-0.1792,-0.1789,-0.1771,-0.1786,-0.1782,-0.1792,-0.1751,-0.1754,-0.1756,-0.1758,-0.1823,-0.183,-0.1837,0,0,0,0,0,-0.1572,-0.1592,-0.1612,-0.1624,-0.1685,-0.1716,-0.1725,-0.1762,-0.1786,-0.1801,-0.1819,-0.1791,-0.1796,-0.1786,-0.1781,-0.1791,-0.1753,-0.1756,-0.1758,-0.182,-0.1829,-0.1836,0,0,0,0,0,0,-0.1553,-0.16,-0.1623,-0.1658,-0.1691,-0.1726,-0.1751,-0.1777,-0.1807,-0.1819,-0.1808,-0.1806,-0.1823,-0.18,-0.179,-0.1799,-0.1768,-0.1769,-0.1817,-0.1825,-0.1832,-0.1817,-0.175,0,0,0,0,0,-0.1558,-0.1587,-0.1628,-0.1659,-0.1678,-0.1721,-0.1745,-0.1771,-0.1797,-0.1814,-0.1821,-0.1824,-0.1824,-0.1822,-0.1816,-0.1819,-0.1791,-0.1821,-0.1828,-0.1834,-0.182,-0.1811,-0.1815,-0.1768,-0.1768,-0.1768,0,0,-0.1561,-0.159,-0.1609,-0.1657,-0.1689,-0.1718,-0.1737,-0.1779,-0.1807,-0.1801,-0.1845,-0.185,-0.1833,-0.1845,-0.1849,-0.183,-0.1835,-0.1837,-0.1842,-0.1824,-0.1814,-0.1818,-0.1822,-0.1769,-0.1769,-0.1769,0,0,-0.1566,-0.1607,-0.163,-0.1659,-0.1709,-0.1733,-0.175,-0.18,-0.1829,-0.1866,-0.1873,-0.1891,-0.1892,-0.1887,-0.188,-0.1917,-0.1876,-0.1919,-0.1936,-0.1929,-0.1932,-0.1935,-0.1915,-0.1915,-0.1918,-0.1918,-0.1918,0,-0.157,-0.1606,-0.164,-0.1667,-0.1697,-0.1742,-0.1771,-0.1802,-0.1853,-0.1874,-0.1885,-0.1916,-0.1906,-0.1915,-0.1934,-0.193,-0.1918,-0.1908,-0.1937,-0.1939,-0.194,-0.1919,-0.1918,-0.1921,-0.1921,-0.1921,-0.192,0,-0.1583,-0.1623,-0.1639,-0.1689,-0.1722,-0.1755,-0.18,-0.1839,-0.1881,-0.1908,-0.1946,-0.1951,-0.1962,-0.1969,-0.1961,-0.1972,-0.1958,-0.1952,-0.1915,-0.1949,-0.1924,-0.1923,-0.1927,-0.1925,-0.1924,-0.1923,0,0,-0.1553,-0.1634,-0.1641,-0.1675,-0.174,-0.1765,-0.1814,-0.1863,-0.1899,-0.1942,-0.1978,-0.1993,-0.2006,-0.1999,-0.2,-0.1994,-0.2003,-0.1981,-0.1979,-0.1958,-0.1982,-0.1853,-0.1839,-0.201,-0.201,-0.201,-0.1964,0,-0.1555,-0.1609,-0.1649,-0.1705,-0.1738,-0.1795,-0.1836,-0.1886,-0.1928,-0.1971,-0.1987,-0.2016,-0.2014,-0.2029,-0.2026,-0.2011,-0.1999,-0.2015,-0.1953,-0.195,-0.1829,-0.1832,-0.2009,-0.1962,-0.1961,-0.1961,-0.1961,0,-0.1545,-0.1587,-0.1645,-0.1725,-0.1745,-0.1786,-0.186,-0.1901,-0.196,-0.1994,-0.2025,-0.2042,-0.2051,-0.2045,-0.2022,-0.2037,-0.2009,-0.1991,-0.1989,-0.1836,-0.1817,-0.1918,-0.1957,-0.1957,-0.1957,-0.1957,-0.1958,0,-0.1496,-0.1578,-0.1628,-0.1657,-0.1751,-0.1792,-0.184,-0.191,-0.1944,-0.2006,-0.2031,-0.2054,-0.2063,-0.2044,-0.2011,-0.2023,-0.1972,-0.1982,-0.1836,-0.1827,-0.1929,-0.1926,-0.195,-0.1951,-0.1951,-0.1951,-0.1951,0,-0.1467,-0.1508,-0.1617,-0.1643,-0.1699,-0.1776,-0.1833,-0.1884,-0.1954,-0.1977,-0.2036,-0.2041,-0.2064,-0.2042,-0.2012,-0.1903,-0.197,-0.182,-0.1799,-0.196,-0.1962,-0.1928,-0.1926,-0.1949,-0.1949,-0.195,-0.195,0,-0.14,-0.1476,-0.1535,-0.1645,-0.1679,-0.1717,-0.1819,-0.1852,-0.1931,-0.1961,-0.198,-0.203,-0.1992,-0.1987,-0.1946,-0.188,-0.1808,-0.1753,-0.1913,-0.1906,-0.1671,-0.1673,-0.1582,-0.1577,-0.1572,-0.1569,-0.1566,0,-0.1367,-0.1396,-0.1515,-0.1551,-0.1604,-0.1677,-0.1721,-0.1822,-0.1851,-0.1929,-0.1924,-0.193,-0.1939,-0.1767,-0.1789,-0.1704,-0.1684,-0.1642,-0.1659,-0.164,-0.163,-0.1639,-0.1647,-0.1559,-0.1558,-0.1557,-0.1555,0,-0.1294,-0.1352,-0.14,-0.1473,-0.1532,-0.1581,-0.1652,-0.1659,-0.1756,-0.1851,-0.1801,-0.1763,-0.1712,-0.1666,-0.1604,-0.1553,-0.167,-0.1597,-0.1606,-0.1622,-0.1611,-0.1608,-0.162,-0.1541,-0.1543,-0.1544,-0.1545,0,-0.1234,-0.1249,-0.1322,-0.1366,-0.1438,-0.145,-0.1506,-0.1529,-0.1564,-0.166,-0.1637,-0.1641,-0.1691,-0.1585,-0.1534,-0.1465,-0.1444,-0.1401,-0.142,-0.1437,-0.1409,-0.1376,-0.1195,0,0,0,0,0,-0.1164,-0.1167,-0.1207,-0.1247,-0.1313,-0.1345,-0.1441,-0.1502,-0.16,-0.152,-0.1572,-0.1516,-0.1432,-0.1443,-0.1335,-0.1465,-0.1452,-0.1335,-0.1414,-0.1457,-0.1475,-0.1454,0,0,0,0,0,0,-0.1117,-0.1151,-0.1162,-0.1128,-0.1132,-0.1181,-0.1231,-0.1306,-0.1273,-0.1379,-0.1336,-0.1416,-0.1353,-0.1451,-0.1297,-0.1298,-0.1316,-0.1354,-0.1349,-0.1448,-0.1463,-0.1477,-0.1462,0,0,0,0,0]},{"header":{"parameterUnit":"m.s-1","parameterCategory":2,"la1":30.2991,"la2":30.254,"lo1":-89.0895,"lo2":-89.0444,"dy":0.0017,"dx":0.0017,"nx":28,"ny":28,"refTime":"2023-09-19T21:00:00:Z","depth":"4","parameterNumber":3,"parameterNumberName":"V-component_of_CURRENTS"},"data":[0,0,0,0,0,0,0,0,0,0,0,0,0,0,0,0,0,0,0,0,0,0,0,0,0,0,0,0,0,0,0,0,0,0,0,0,0,0,0,0,0,0,0,0,0,0,0,0,0,0,0,0,0,0,0,0,0,0,-0.0251,-0.025,0,-0.0194,-0.0194,-0.0193,-0.0144,-0.0144,-0.0143,-0.0143,-0.0096,-0.0095,-0.0094,0,0,0,0,0,0,0,0,0,0,0,0,0,-0.0269,-0.0269,-0.0251,-0.025,-0.025,-0.0195,-0.0194,-0.0193,-0.0144,-0.0144,-0.0143,-0.0142,-0.0096,-0.0095,-0.0094,0,0,0,0,0,0,0,0,0,0,0,0,0,-0.024,-0.0269,-0.0251,-0.022,-0.0216,-0.0195,-0.0194,-0.0192,-0.0144,-0.0143,-0.0143,-0.0142,-0.0097,-0.0095,-0.0094,-0.0099,0,0,-0.009,-0.009,0,0,0,0,0,0,0,0,-0.0242,-0.024,-0.0225,-0.0222,-0.0218,-0.0177,-0.0183,-0.0162,-0.0144,-0.017,-0.0143,-0.0142,-0.0125,-0.0121,-0.011,-0.0097,-0.0095,-0.009,-0.0089,-0.0089,-0.0088,0,0,0,0,0,0,0,-0.0244,-0.0242,-0.0227,-0.0224,-0.022,-0.0192,-0.0188,-0.0178,-0.0151,-0.0168,-0.0165,-0.0161,-0.0123,-0.0112,-0.0109,-0.0095,-0.009,-0.0089,-0.0088,-0.0088,-0.0049,-0.0049,0,0,0,0,0,0,-0.0257,-0.0244,-0.0229,-0.0226,-0.023,-0.0193,-0.0188,-0.019,-0.0151,-0.0145,-0.0161,-0.0158,-0.0114,-0.0111,-0.0107,-0.0088,-0.0089,-0.0088,-0.0087,-0.005,-0.0049,-0.0049,0,0,0,0,0,0,-0.0258,-0.0257,-0.0231,-0.0234,-0.0229,-0.0194,-0.0196,-0.0189,-0.0179,-0.0146,-0.014,-0.0158,-0.0113,-0.0109,-0.009,-0.0087,-0.0087,-0.0086,-0.005,-0.005,-0.0049,-0.0065,0,0,0,0,0,0,-0.0259,-0.0257,-0.0265,-0.0235,-0.0229,-0.0224,-0.0196,-0.0188,-0.0178,-0.0174,-0.0142,-0.0136,-0.0113,-0.0092,-0.0089,-0.0085,-0.0085,-0.005,-0.005,-0.0049,-0.0064,-0.0065,-0.0065,0,0,0,0,0,-0.026,-0.0273,-0.0266,-0.0264,-0.0241,-0.0225,-0.0219,-0.019,-0.0178,-0.0178,-0.0147,-0.0137,-0.0086,-0.0091,-0.0087,-0.0083,-0.0051,-0.005,-0.0049,-0.0064,-0.0065,-0.0065,0,0,0,0,0,0,-0.0284,-0.0268,-0.026,-0.0268,-0.0251,-0.0217,-0.0217,-0.0198,-0.0173,-0.0171,-0.0136,-0.0129,-0.0109,-0.0097,-0.0103,-0.007,-0.0067,-0.0065,-0.0079,-0.0079,-0.008,-0.0091,-0.0084,0,0,0,0,0,-0.0295,-0.0302,-0.0279,-0.0287,-0.0282,-0.0252,-0.0243,-0.0225,-0.0199,-0.0188,-0.0162,-0.0134,-0.0105,-0.0093,-0.0071,-0.006,-0.0033,-0.0054,-0.0054,-0.0054,-0.006,-0.0004,0.0001,-0.0047,-0.0047,-0.0047,0,0,-0.0307,-0.03,-0.0304,-0.0293,-0.0279,-0.0274,-0.0245,-0.0238,-0.0227,-0.0189,-0.0171,-0.0139,-0.0102,-0.0079,-0.007,-0.0068,-0.0027,-0.0054,-0.0054,-0.006,-0.0002,0.0002,0.0007,-0.0047,-0.0047,-0.0047,0,0,-0.0333,-0.033,-0.0342,-0.0332,-0.0318,-0.0297,-0.0299,-0.027,-0.0251,-0.0233,-0.0192,-0.0155,-0.013,-0.0085,-0.0063,-0.0056,-0.0031,-0.0056,-0.0066,-0.001,-0.0006,-0.0002,0.0035,0.0043,-0.0055,-0.0055,-0.0055,0,-0.0349,-0.036,-0.0343,-0.0348,-0.0343,-0.0312,-0.0317,-0.0294,-0.026,-0.0241,-0.0234,-0.0159,-0.0128,-0.0075,-0.0067,-0.0056,-0.003,-0.0067,-0.001,-0.0006,-0.0001,0.0036,0.0045,-0.0056,-0.0056,-0.0056,-0.0056,0,-0.0377,-0.0386,-0.0393,-0.0389,-0.038,-0.0383,-0.035,-0.0337,-0.0314,-0.0282,-0.0235,-0.0181,-0.0134,-0.0113,-0.0089,-0.0038,-0.0033,-0.0017,-0.001,0.0003,0.0041,0.005,-0.0057,-0.0056,-0.0056,-0.0056,0,0,-0.0411,-0.0414,-0.0417,-0.0423,-0.0403,-0.04,-0.0384,-0.0354,-0.0339,-0.0296,-0.0264,-0.0196,-0.0162,-0.0134,-0.0088,-0.0038,0.0022,-0.0021,-0.0018,0.0014,0.0131,0.0114,0.0123,0.0047,0.0049,0.005,0.0143,0,-0.0439,-0.0466,-0.0452,-0.0468,-0.0477,-0.0443,-0.043,-0.0397,-0.0361,-0.0323,-0.0248,-0.0207,-0.017,-0.0146,-0.0087,-0.0005,0.0046,-0.0006,0.0114,0.0118,0.0101,0.0134,0.0055,0.015,0.0152,0.0154,0.0155,0,-0.0467,-0.0483,-0.0511,-0.0509,-0.0509,-0.0512,-0.0486,-0.0469,-0.0401,-0.0369,-0.0307,-0.0251,-0.0164,-0.0141,0.0006,-0.0031,0.0042,0.0105,0.0111,0.0106,0.0119,0.0136,0.0172,0.0171,0.017,0.0168,0.0167,0,-0.0502,-0.0519,-0.0547,-0.0548,-0.054,-0.0545,-0.0537,-0.0488,-0.047,-0.04,-0.0376,-0.0267,-0.0214,-0.0103,0.0024,0.0017,0.0179,0.0191,0.0247,0.0246,0.0238,0.0233,0.0292,0.0292,0.0292,0.0291,0.0291,0,-0.053,-0.0552,-0.0572,-0.0587,-0.0615,-0.0592,-0.0601,-0.0572,-0.0524,-0.0497,-0.0408,-0.0357,-0.0203,-0.0092,0.002,0.016,0.0182,0.0249,0.0275,0.0229,0.0221,0.0245,0.0238,0.0295,0.0294,0.0293,0.0293,0,-0.0557,-0.057,-0.0606,-0.0624,-0.0635,-0.0657,-0.0659,-0.0655,-0.0606,-0.0567,-0.0547,-0.0416,-0.027,-0.0117,0.0072,0.0149,0.0288,0.0331,0.0261,0.0281,0.0316,0.0308,0.0403,0.0403,0.0404,0.0404,0.0404,0,-0.0571,-0.0595,-0.0646,-0.0679,-0.0695,-0.0724,-0.0738,-0.0704,-0.0689,-0.0597,-0.0573,-0.0435,-0.0333,-0.0073,0.0077,0.0288,0.0313,0.0372,0.0353,0.0315,0.0331,0.0322,0.0313,0.0404,0.0404,0.0405,0.0405,0,-0.0596,-0.0621,-0.0653,-0.0726,-0.0765,-0.0795,-0.0809,-0.08,-0.0741,-0.0703,-0.0572,-0.043,-0.0266,-0.0069,0.0091,0.024,0.0328,0.0375,0.0376,0.0359,0.0318,0.0331,0.0322,0.0406,0.0405,0.0405,0.0405,0,-0.0614,-0.065,-0.0703,-0.0759,-0.0815,-0.0843,-0.0847,-0.0806,-0.0775,-0.0659,-0.0618,-0.0428,-0.0313,-0.0093,0.0057,0.0199,0.0231,0.0264,0.0271,0.0272,0.0201,0.0128,0.0185,0,0,0,0,0,-0.0625,-0.0669,-0.0731,-0.0791,-0.0846,-0.0872,-0.0878,-0.0863,-0.0807,-0.0717,-0.0659,-0.0497,-0.0251,-0.0139,0.0002,0.004,0.0232,0.0206,0.0268,0.0411,0.041,0.0347,0,0,0,0,0,0,-0.0636,-0.0698,-0.073,-0.0802,-0.0844,-0.0893,-0.0896,-0.0861,-0.0792,-0.0716,-0.0576,-0.0484,-0.0242,-0.0331,-0.0001,0.0042,0.0095,0.0329,0.0331,0.0411,0.041,0.041,0.0345,0,0,0,0,0]}]]